H1 CPF 2 NER 2025 10 23 9 296 01 glonass132 H2 1401201 9132 39620 2025 10 23 0 0 0 2025 10 26 23 45 0 900 1 1 0 0 0 1 H9 10 0 60971 0.00000 0 11071054.079 402807.546 22995568.900 10 0 60971 900.00000 0 10158033.207 3100993.068 23213802.563 10 0 60971 1800.00000 0 9450252.020 5858891.383 22982291.736 10 0 60971 2700.00000 0 8961733.148 8607000.511 22305657.711 10 0 60971 3600.00000 0 8693980.220 11274967.744 21197109.986 10 0 60971 4500.00000 0 8636024.621 13794282.134 19678185.325 10 0 60971 5400.00000 0 8765008.386 16100897.069 17778330.189 10 0 60971 6300.00000 0 9047278.025 18137676.034 15534334.388 10 0 60971 7200.00000 0 9439943.106 19856561.771 12989626.283 10 0 60971 8100.00000 0 9892834.381 21220380.310 10193442.272 10 0 60971 9000.00000 0 10350779.701 22204206.114 7199885.471 10 0 60971 9900.00000 0 10756102.707 22796232.315 4066890.673 10 0 60971 10800.00000 0 11051239.926 22998110.234 855114.470 10 0 60971 11700.00000 0 11181366.576 22824744.066 -2373229.045 10 0 60971 12600.00000 0 11096920.769 22303549.037 -5555565.182 10 0 60971 13500.00000 0 10755919.548 21473203.584 -8630165.643 10 0 60971 14400.00000 0 10125968.513 20381947.141 -11537342.541 10 0 60971 15300.00000 0 9185879.203 19085494.204 -14220606.420 10 0 60971 16200.00000 0 7926824.446 17644651.509 -16627765.726 10 0 60971 17100.00000 0 6352980.990 16122737.774 -18711946.181 10 0 60971 18000.00000 0 4481629.983 14582914.000 -20432509.827 10 0 60971 18900.00000 0 2342708.536 13085536.279 -21755855.361 10 0 60971 19800.00000 0 -22171.453 11685642.370 -22656083.607 10 0 60971 20700.00000 0 -2561198.545 10430677.919 -23115514.405 10 0 60971 21600.00000 0 -5214271.533 9358558.343 -23125044.071 10 0 60971 22500.00000 0 -7915265.684 8496148.347 -22684335.590 10 0 60971 23400.00000 0 -10594562.022 7858223.675 -21801836.894 10 0 60971 24300.00000 0 -13181734.809 7446959.264 -20494626.005 10 0 60971 25200.00000 0 -15608285.254 7251965.739 -18788085.205 10 0 60971 26100.00000 0 -17810307.056 7250872.858 -16715409.944 10 0 60971 27000.00000 0 -19730971.926 7410435.055 -14316961.631 10 0 60971 27900.00000 0 -21322730.493 7688111.866 -11639476.792 10 0 60971 28800.00000 0 -22549135.841 8034055.452 -8735148.307 10 0 60971 29700.00000 0 -23386212.878 8393419.845 -5660597.245 10 0 60971 30600.00000 0 -23823316.072 8708892.576 -2475756.328 10 0 60971 31500.00000 0 -23863439.965 8923339.735 757311.894 10 0 60971 32400.00000 0 -23522970.391 8982450.652 3975637.697 10 0 60971 33300.00000 0 -22830888.271 8837268.598 7116582.368 10 0 60971 34200.00000 0 -21827461.296 8446498.996 10119066.395 10 0 60971 35100.00000 0 -20562480.495 7778496.582 12924762.715 10 0 60971 36000.00000 0 -19093117.864 6812846.963 15479231.109 10 0 60971 36900.00000 0 -17481496.821 5541475.715 17732971.494 10 0 60971 37800.00000 0 -15792078.878 3969238.500 19642375.981 10 0 60971 38700.00000 0 -14088976.883 2113967.731 21170562.058 10 0 60971 39600.00000 0 -12433307.547 5974.285 22288071.955 10 0 60971 40500.00000 0 -10880693.464 -2312974.566 22973426.170 10 0 60971 41400.00000 0 -9479017.895 -4791158.268 23213522.080 10 0 60971 42300.00000 0 -8266524.432 -7368824.713 23003871.535 10 0 60971 43200.00000 0 -7270338.917 -9980451.249 22348674.260 10 0 60971 44100.00000 0 -6505473.202 -12557252.072 21260726.726 10 0 60971 45000.00000 0 -5974350.349 -15029829.178 19761168.961 10 0 60971 45900.00000 0 -5666869.360 -17330858.463 17879074.419 10 0 60971 46800.00000 0 -5561005.367 -19397701.183 15650890.624 10 0 60971 47700.00000 0 -5623919.317 -21174833.974 13119740.830 10 0 60971 48600.00000 0 -5813530.249 -22615997.957 10334599.272 10 0 60971 49500.00000 0 -6080484.233 -23685978.770 7349354.890 10 0 60971 50400.00000 0 -6370437.636 -24361944.201 4221780.432 10 0 60971 51300.00000 0 -6626559.155 -24634284.087 1012425.786 10 0 60971 52200.00000 0 -6792145.843 -24506917.452 -2216544.119 10 0 60971 53100.00000 0 -6813243.214 -23997053.649 -5402545.114 10 0 60971 54000.00000 0 -6641159.041 -23134416.874 -8483780.765 10 0 60971 54900.00000 0 -6234764.442 -21959965.656 -11400437.505 10 0 60971 55800.00000 0 -5562484.413 -20524160.016 -14095844.860 10 0 60971 56700.00000 0 -4603892.523 -18884847.990 -16517578.227 10 0 60971 57600.00000 0 -3350840.819 -17104859.259 -18618482.568 10 0 60971 58500.00000 0 -1808075.166 -15249406.112 -20357596.730 10 0 60971 59400.00000 0 6692.285 -13383400.251 -21700959.948 10 0 60971 60300.00000 0 2063259.182 -11568797.701 -22622284.223 10 0 60971 61200.00000 0 4319940.166 -9862083.161 -23103478.782 10 0 60971 62100.00000 0 6725065.362 -8311999.489 -23135015.572 10 0 60971 63000.00000 0 9218909.492 -6957617.883 -22716127.829 10 0 60971 63900.00000 0 11735972.465 -5826830.153 -21854836.885 10 0 60971 64800.00000 0 14207517.145 -4935326.775 -20567805.799 10 0 60971 65700.00000 0 16564258.714 -4286103.894 -18880021.825 10 0 60971 66600.00000 0 18739093.115 -3869520.076 -16824313.191 10 0 60971 67500.00000 0 20669750.045 -3663900.108 -14440709.247 10 0 60971 68400.00000 0 22301258.694 -3636659.756 -11775656.234 10 0 60971 69300.00000 0 23588122.141 -3745902.952 -8881104.306 10 0 60971 70200.00000 0 24496108.491 -3942422.521 -5813484.173 10 0 60971 71100.00000 0 25003583.140 -4172018.112 -2632594.310 10 0 60971 72000.00000 0 25102326.162 -4378031.319 599578.269 10 0 60971 72900.00000 0 24797800.887 -4503988.689 3820079.276 10 0 60971 73800.00000 0 24108863.352 -4496238.837 6966225.163 10 0 60971 74700.00000 0 23066926.193 -4306470.389 9976832.393 10 0 60971 75600.00000 0 21714613.850 -3894002.980 12793412.938 10 0 60971 76500.00000 0 20103967.388 -3227753.613 15361312.084 10 0 60971 77400.00000 0 18294276.061 -2287795.014 17630766.155 10 0 60971 78300.00000 0 16349628.023 -1066440.296 19557859.939 10 0 60971 79200.00000 0 14336283.755 431191.433 21105366.038 10 0 60971 80100.00000 0 12319982.500 2187151.777 22243451.052 10 0 60971 81000.00000 0 10363293.976 4171182.681 22950236.432 10 0 60971 81900.00000 0 8523124.955 6341756.953 23212204.794 10 0 60971 82800.00000 0 6848483.218 8647596.291 23024445.428 10 0 60971 83700.00000 0 5378590.124 11029603.905 22390735.708 10 0 60971 84600.00000 0 4141418.268 13423132.105 21323457.923 10 0 60971 85500.00000 0 3152712.951 15760491.640 19843353.873 10 0 60972 0.00000 0 2415536.236 17973599.714 17979122.399 10 0 60972 900.00000 0 1920350.490 19996659.346 15766866.369 10 0 60972 1800.00000 0 1645637.507 21768757.323 13249401.837 10 0 60972 2700.00000 0 1559025.124 23236278.068 10475438.487 10 0 60972 3600.00000 0 1618874.742 24355031.157 7498648.557 10 0 60972 4500.00000 0 1776262.697 25092005.842 4376640.135 10 0 60972 5400.00000 0 1977272.550 25426679.642 1169853.727 10 0 60972 6300.00000 0 2165502.230 25351826.323 -2059597.595 10 0 60972 7200.00000 0 2284680.812 24873789.077 -5249122.834 10 0 60972 8100.00000 0 2281284.797 24012206.726 -8336859.966 10 0 60972 9000.00000 0 2107043.431 22799203.344 -11262872.126 10 0 60972 9900.00000 0 1721226.858 21278074.088 -13970310.006 10 0 60972 10800.00000 0 1092619.610 19501521.028 -16406517.898 10 0 60972 11700.00000 0 201094.778 17529511.703 -18524061.706 10 0 60972 12600.00000 0 -961279.336 15426849.066 -20281658.547 10 0 60972 13500.00000 0 -2389648.876 13260553.794 -21644989.420 10 0 60972 14400.00000 0 -4066327.694 11097167.940 -22587378.495 10 0 60972 15300.00000 0 -5961298.671 9000092.571 -23090325.102 10 0 60972 16200.00000 0 -8033244.496 7027070.731 -23143877.235 10 0 60972 17100.00000 0 -10231066.890 5227921.244 -22746838.439 10 0 60972 18000.00000 0 -12495832.395 3642618.525 -21906803.094 10 0 60972 18900.00000 0 -14763064.554 2299799.120 -20640018.511 10 0 60972 19800.00000 0 -16965287.271 1215757.784 -18971075.668 10 0 60972 20700.00000 0 -19034713.014 393975.256 -16932433.943 10 0 60972 21600.00000 0 -20905962.971 -174802.712 -14563788.633 10 0 60972 22500.00000 0 -22518704.453 -511939.036 -11911293.453 10 0 60972 23400.00000 0 -23820093.981 -649759.130 -9026653.411 10 0 60972 24300.00000 0 -24766922.573 -629934.667 -5966106.340 10 0 60972 25200.00000 0 -25327372.288 -501467.319 -2789313.904 10 0 60972 26100.00000 0 -25482309.670 -318359.761 441815.012 10 0 60972 27000.00000 0 -25226061.666 -137074.595 3664344.152 10 0 60972 27900.00000 0 -24566641.775 -13890.841 6815547.735 10 0 60972 28800.00000 0 -23525417.844 -2271.767 9834140.776 10 0 60972 29700.00000 0 -22136236.771 -150356.932 12661476.817 10 0 60972 30600.00000 0 -20444044.419 -498685.603 15242689.069 10 0 60972 31500.00000 0 -18503060.281 -1078248.271 17527752.513 10 0 60972 32400.00000 0 -16374584.819 -1908948.603 19472446.610 10 0 60972 33300.00000 0 -14124532.355 -2998540.378 21039200.750 10 0 60972 34200.00000 0 -11820793.209 -4342083.609 22197807.193 10 0 60972 35100.00000 0 -9530535.153 -5921942.117 22925989.228 10 0 60972 36000.00000 0 -7317555.957 -7708322.199 23209815.173 10 0 60972 36900.00000 0 -5239796.032 -9660329.611 23043951.823 10 0 60972 37800.00000 0 -3347112.855 -11727500.814 22431753.892 10 0 60972 38700.00000 0 -1679407.628 -13851745.134 21385188.855 10 0 60972 39600.00000 0 -265179.828 -15969617.736 19924599.345 10 0 60972 40500.00000 0 879432.457 -18014829.942 18078308.010 10 0 60972 41400.00000 0 1751088.493 -19920893.811 15882072.270 10 0 60972 42300.00000 0 2359140.679 -21623792.272 13378398.976 10 0 60972 43200.00000 0 2724995.759 -23064565.031 10615731.349 10 0 60972 44100.00000 0 2880969.029 -24191703.639 7647522.821 10 0 60972 45000.00000 0 2868679.876 -24963256.680 4531214.571 10 0 60972 45900.00000 0 2737056.050 -25348557.635 1327135.368 10 0 60972 46800.00000 0 2540030.290 -25329503.222 -1902656.027 10 0 60972 47700.00000 0 2334025.963 -24901328.316 -5095564.311 10 0 60972 48600.00000 0 2175337.366 -24072844.156 -8189664.453 10 0 60972 49500.00000 0 2117515.087 -22866128.716 -11124898.915 10 0 60972 50400.00000 0 2208866.947 -21315680.791 -13844242.199 10 0 60972 51300.00000 0 2490180.588 -19467071.758 -16294810.095 10 0 60972 52200.00000 0 2992764.813 -17375149.924 -18428891.938 10 0 60972 53100.00000 0 3736893.741 -15101871.279 -20204885.411 10 0 60972 54000.00000 0 4730721.189 -12713846.221 -21588115.269 10 0 60972 54900.00000 0 5969713.137 -10279703.914 -22551519.469 10 0 60972 55800.00000 0 7436624.458 -7867383.849 -23076188.628 10 0 60972 56700.00000 0 9102023.223 -5541467.471 -23151747.511 10 0 60972 57600.00000 0 10925342.781 -3360661.278 -22776570.231 10 0 60972 58500.00000 0 12856419.345 -1375536.734 -21957824.027 10 0 60972 59400.00000 0 14837452.054 373378.308 -20711339.859 10 0 60972 60300.00000 0 16805304.308 1857076.598 -19061311.434 10 0 60972 61200.00000 0 18694050.168 3059054.976 -17039827.876 10 0 60972 62100.00000 0 20437658.900 3975763.264 -14686248.654 10 0 60972 63000.00000 0 21972704.325 4616500.284 -12046432.782 10 0 60972 63900.00000 0 23240984.223 5002762.260 -9171837.570 10 0 60972 64800.00000 0 24191938.611 5167072.450 -6118505.082 10 0 60972 65700.00000 0 24784764.085 5151343.094 -2945957.000 10 0 60972 66600.00000 0 24990134.401 5004840.917 283979.260 10 0 60972 67500.00000 0 24791454.347 4781844.402 3508388.883 10 0 60972 68400.00000 0 24185594.068 4539094.160 6664507.202 10 0 60972 69300.00000 0 23183073.350 4333146.356 9690950.964 10 0 60972 70200.00000 0 21807688.961 4217742.901 12528918.194 10 0 60972 71100.00000 0 20095601.889 4241310.937 15123332.631 10 0 60972 72000.00000 0 18093924.115 4444698.093 17423910.148 10 0 60972 72900.00000 0 15858865.485 4859239.349 19386126.747 10 0 60972 73800.00000 0 13453519.267 5505236.834 20972070.092 10 0 60972 74700.00000 0 10945379.637 6390916.020 22151159.215 10 0 60972 75600.00000 0 8403694.760 7511901.423 22900719.965 10 0 60972 76500.00000 0 5896765.249 8851233.133 23206406.680 10 0 60972 77400.00000 0 3489299.370 10379922.858 23062463.566 10 0 60972 78300.00000 0 1239933.308 12058025.982 22471822.154 10 0 60972 79200.00000 0 -800982.511 13836184.923 21446034.137 10 0 60972 80100.00000 0 -2593241.279 15657579.871 20005041.603 10 0 60972 81000.00000 0 -4108207.011 17460206.389 18176789.432 10 0 60972 81900.00000 0 -5329753.917 19179386.064 15996687.179 10 0 60972 82800.00000 0 -6254680.754 20750406.768 13506930.312 10 0 60972 83700.00000 0 -6892584.470 22111183.712 10755693.073 10 0 60972 84600.00000 0 -7265199.503 23204831.397 7796207.459 10 0 60972 85500.00000 0 -7405231.051 23982039.921 4685745.037 10 0 60973 0.00000 0 -7354731.507 24403156.792 1484520.384 10 0 60973 900.00000 0 -7163088.078 24439887.422 -1745465.360 10 0 60973 1800.00000 0 -6884706.114 24076542.199 -4941614.990 10 0 60973 2700.00000 0 -6576485.229 23310777.853 -8041943.064 10 0 60973 3600.00000 0 -6295194.424 22153800.143 -10986273.833 10 0 60973 4500.00000 0 -6094856.856 20630018.145 -13717407.869 10 0 60973 5400.00000 0 -6024254.864 18776162.847 -16182234.512 10 0 60973 6300.00000 0 -6124661.154 16639905.141 -18332768.330 10 0 60973 7200.00000 0 -6427892.860 14278029.339 -20127089.119 10 0 60973 8100.00000 0 -6954771.975 11754237.025 -21530166.688 10 0 60973 9000.00000 0 -7714058.751 9136671.683 -22514553.817 10 0 60973 9900.00000 0 -8701904.962 6495266.553 -23060933.165 10 0 60973 10800.00000 0 -9901852.145 3899025.734 -23158506.706 10 0 60973 11700.00000 0 -11285376.935 1413351.694 -22805219.197 10 0 60973 12600.00000 0 -12812962.434 -902469.317 -22007810.422 10 0 60973 13500.00000 0 -14435652.141 -2997518.841 -20781694.217 10 0 60973 14400.00000 0 -16097022.227 -4831140.531 -19150665.819 10 0 60973 15300.00000 0 -17735489.867 -6374397.815 -17146442.478 10 0 60973 16200.00000 0 -19286860.593 -7611033.927 -14808045.841 10 0 60973 17100.00000 0 -20687007.091 -8537894.399 -12181037.941 10 0 60973 18000.00000 0 -21874565.843 -9164794.970 -9316625.903 10 0 60973 18900.00000 0 -22793536.883 -9513841.651 -6270653.391 10 0 60973 19800.00000 0 -23395675.988 -9618233.172 -3102499.396 10 0 60973 20700.00000 0 -23642577.283 -9520598.257 126092.897 10 0 60973 21600.00000 0 -23507357.638 -9270940.182 3352232.888 10 0 60973 22500.00000 0 -22975871.344 -8924277.767 6513119.810 10 0 60973 23400.00000 0 -22047403.858 -8538084.778 9547274.894 10 0 60973 24300.00000 0 -20734815.818 -8169637.981 12395743.338 10 0 60973 25200.00000 0 -19064132.041 -7873387.510 15003241.954 10 0 60973 26100.00000 0 -17073593.803 -7698461.680 17319229.846 10 0 60973 27000.00000 0 -14812215.245 -7686412.034 19298881.606 10 0 60973 27900.00000 0 -12337905.296 -7869293.601 20903944.847 10 0 60973 28800.00000 0 -9715234.310 -8268160.689 22103466.635 10 0 60973 29700.00000 0 -7012938.793 -8892040.596 22874376.182 10 0 60973 30600.00000 0 -4301267.831 -9737427.359 23201914.216 10 0 60973 31500.00000 0 -1649280.732 -10788315.871 23079902.284 10 0 60973 32400.00000 0 877793.274 -12016774.187 22510848.283 10 0 60973 33300.00000 0 3221025.525 -13384029.759 21505887.338 10 0 60973 34200.00000 0 5329988.190 -14842024.212 20084559.904 10 0 60973 35100.00000 0 7164595.239 -16335372.152 18274431.744 10 0 60973 36000.00000 0 8696509.941 -17803643.017 16110562.941 10 0 60973 36900.00000 0 9910062.335 -19183871.682 13634835.737 10 0 60973 37800.00000 0 10802640.256 -20413194.087 10895153.311 10 0 60973 38700.00000 0 11384538.904 -21431498.849 7944523.930 10 0 60973 39600.00000 0 11678276.130 -22183984.829 4840047.056 10 0 60973 40500.00000 0 11717402.566 -22623518.237 1641819.879 10 0 60973 41400.00000 0 11544856.584 -22712690.726 -1588215.631 10 0 60973 42300.00000 0 11210933.007 -22425491.902 -4787463.665 10 0 60973 43200.00000 0 10770950.684 -21748525.416 -7893881.084 10 0 60973 44100.00000 0 10282716.801 -20681716.351 -10847176.572 10 0 60973 45000.00000 0 9803894.547 -19238478.704 -13589979.336 10 0 60973 45900.00000 0 9389385.111 -17445334.032 -16068954.688 10 0 60973 46800.00000 0 9088834.674 -15340995.213 -18235844.683 10 0 60973 47700.00000 0 8944372.180 -12974951.655 -20048413.240 10 0 60973 48600.00000 0 8988674.219 -10405613.183 -21471276.930 10 0 60973 49500.00000 0 9243439.889 -7698088.439 -22476604.692 10 0 60973 50400.00000 0 9718341.477 -4921689.195 -23044672.155 10 0 60973 51300.00000 0 10410496.845 -2147263.668 -23164258.980 10 0 60973 52200.00000 0 11304487.569 555530.610 -22832880.621 10 0 60973 53100.00000 0 12372923.700 3120900.902 -22056849.015 10 0 60973 54000.00000 0 13577532.895 5489428.847 -20851160.111 10 0 60973 54900.00000 0 14870729.153 7610310.621 -19239209.518 10 0 60973 55800.00000 0 16197595.803 9443233.845 -17252341.116 10 0 60973 56700.00000 0 17498199.365 10959812.655 -14929236.893 10 0 60973 57600.00000 0 18710136.476 12144520.906 -12315159.729 10 0 60973 58500.00000 0 19771205.692 12995084.821 -9461064.073 10 0 60973 59400.00000 0 20622090.355 13522319.449 -6422592.421 10 0 60973 60300.00000 0 21208938.017 13749417.148 -3258978.066 10 0 60973 61200.00000 0 21485726.204 13710719.813 -31876.819 10 0 60973 62100.00000 0 21416313.523 13450028.726 3195848.142 10 0 60973 63000.00000 0 20976088.667 13018525.667 6361363.090 10 0 60973 63900.00000 0 20153147.322 12472395.405 9403096.738 10 0 60973 64800.00000 0 18948947.346 11870252.145 12261944.228 10 0 60973 65700.00000 0 17378415.028 11270480.413 14882417.932 10 0 60973 66600.00000 0 15469498.644 10728603.966 17213722.370 10 0 60973 67500.00000 0 13262188.902 10294794.387 19210732.572 10 0 60973 68400.00000 0 10807048.130 10011624.492 20834857.629 10 0 60973 69300.00000 0 8163310.376 9912160.651 22054773.809 10 0 60973 70200.00000 0 5396631.965 10018473.341 22847014.511 10 0 60973 71100.00000 0 2576586.050 10340627.297 23196407.269 10 0 60973 72000.00000 0 -225995.304 10876192.399 23096350.983 10 0 60973 72900.00000 0 -2941722.338 11610294.616 22548929.480 10 0 60973 73800.00000 0 -5505281.661 12516204.040 21564860.412 10 0 60973 74700.00000 0 -7857895.869 13556434.910 20163281.247 10 0 60973 75600.00000 0 -9949508.856 14684311.553 18371376.838 10 0 60973 76500.00000 0 -11740608.350 15845935.161 16223855.649 10 0 60973 77400.00000 0 -13203611.996 16982469.817 13762284.255 10 0 60973 78300.00000 0 -14323761.140 18032653.048 11034292.141 10 0 60973 79200.00000 0 -15099486.555 18935426.857 8092661.109 10 0 60973 80100.00000 0 -15542231.793 19632579.882 4994315.763 10 0 60973 81000.00000 0 -15675742.202 20071290.638 1799233.455 10 0 60973 81900.00000 0 -15534849.546 20206465.483 -1430706.279 10 0 60973 82800.00000 0 -15163803.102 20002773.062 -4632911.350 10 0 60973 83700.00000 0 -14614217.028 19436289.200 -7745283.428 10 0 60973 84600.00000 0 -13942719.900 18495682.087 -10707418.024 10 0 60973 85500.00000 0 -13208404.990 17182886.457 -13461775.202 10 0 60974 0.00000 0 -12470188.473 15513236.719 -15954798.068 10 0 60974 900.00000 0 -11784186.460 13515050.347 -18137958.405 10 0 60974 1800.00000 0 -11201222.619 11228679.019 -19968705.560 10 0 60974 2700.00000 0 -10764570.645 8705062.007 -21411304.129 10 0 60974 3600.00000 0 -10508028.546 6003842.324 -22437540.193 10 0 60974 4500.00000 0 -10454406.606 3191121.725 -23027283.031 10 0 60974 5400.00000 0 -10614494.081 336946.916 -23168890.365 10 0 60974 6300.00000 0 -10986549.583 -2487369.220 -22859448.361 10 0 60974 7200.00000 0 -11556338.015 -5211980.252 -22104840.759 10 0 60974 8100.00000 0 -12297713.763 -7771178.994 -20919644.868 10 0 60974 9000.00000 0 -13173726.597 -10105898.894 -19326855.528 10 0 60974 9900.00000 0 -14138204.283 -12165939.347 -17357441.711 10 0 60974 10800.00000 0 -15137745.380 -13911821.665 -15049743.886 10 0 60974 11700.00000 0 -16114037.846 -15316197.906 -12448723.638 10 0 60974 12600.00000 0 -17006404.857 -16364753.629 -9605080.400 10 0 60974 13500.00000 0 -17754469.159 -17056567.211 -6574253.019 10 0 60974 14400.00000 0 -18300822.060 -17403911.568 -3415326.532 10 0 60974 15300.00000 0 -18593582.732 -17431508.060 -189866.756 10 0 60974 16200.00000 0 -18588738.301 -17175265.855 3039293.197 10 0 60974 17100.00000 0 -18252164.663 -16680562.052 6209289.320 10 0 60974 18000.00000 0 -17561241.871 -16000137.425 9258460.483 10 0 60974 18900.00000 0 -16505995.538 -15191698.809 12127554.412 10 0 60974 19800.00000 0 -15089716.163 -14315331.276 14760881.597 10 0 60974 20700.00000 0 -13329030.700 -13430830.788 17107394.365 10 0 60974 21600.00000 0 -11253423.960 -12595070.713 19121670.336 10 0 60974 22500.00000 0 -8904230.581 -11859513.423 20764781.912 10 0 60974 23400.00000 0 -6333140.329 -11267971.365 22005036.023 10 0 60974 24300.00000 0 -3600279.474 -10854710.800 22818571.292 10 0 60974 25200.00000 0 -771948.105 -10642976.552 23189802.683 10 0 60974 26100.00000 0 2081892.960 -10643998.134 23111706.639 10 0 60974 27000.00000 0 4890282.295 -10856517.373 22585942.724 10 0 60974 27900.00000 0 7583956.068 -11266855.971 21622810.567 10 0 60974 28800.00000 0 10097974.193 -11849519.139 20241043.767 10 0 60974 29700.00000 0 12374167.534 -12568309.447 18467445.093 10 0 60974 30600.00000 0 14363306.784 -13377904.116 16336369.916 10 0 60974 31500.00000 0 16026904.910 -14225829.978 13889067.374 10 0 60974 32400.00000 0 17338580.096 -15054754.000 11172891.196 10 0 60974 33300.00000 0 18284923.927 -15804994.156 8240394.357 10 0 60974 34200.00000 0 18865839.663 -16417146.177 5148323.961 10 0 60974 35100.00000 0 19094337.156 -16834716.644 1956534.663 10 0 60974 36000.00000 0 18995793.263 -17006652.302 -1273159.442 10 0 60974 36900.00000 0 18606708.611 -16889659.362 -4478173.056 10 0 60974 37800.00000 0 17973012.561 -16450214.895 -7596355.697 10 0 60974 38700.00000 0 17147987.070 -15666184.873 -10567192.622 10 0 60974 39600.00000 0 16189896.162 -14527979.426 -13332977.512 10 0 60974 40500.00000 0 15159420.330 -13039194.983 -15839934.215 10 0 60974 41400.00000 0 14117003.450 -11216714.143 -18039265.633 10 0 60974 42300.00000 0 13120223.884 -9090256.691 -19888109.005 10 0 60974 43200.00000 0 12221300.568 -6701398.151 -21350378.624 10 0 60974 44100.00000 0 11464839.548 -4102094.498 -22397479.014 10 0 60974 45000.00000 0 10885916.516 -1352772.583 -23008874.006 10 0 60974 45900.00000 0 10508577.002 1479935.853 -23172499.850 10 0 60974 46800.00000 0 10344818.368 4325723.434 -22885013.457 10 0 60974 47700.00000 0 10394097.567 7113295.116 -22151869.975 10 0 60974 48600.00000 0 10643386.388 9773103.259 -20987227.257 10 0 60974 49500.00000 0 11067772.688 12240015.840 -19413678.169 10 0 60974 50400.00000 0 11631582.748 14455806.180 -17461815.211 10 0 60974 51300.00000 0 12289977.556 16371359.822 -15169635.403 10 0 60974 52200.00000 0 12990955.311 17948505.914 -12581796.783 10 0 60974 53100.00000 0 13677674.812 19161396.134 -9748741.203 10 0 60974 54000.00000 0 14291000.363 19997373.480 -6725701.012 10 0 60974 54900.00000 0 14772159.172 20457294.963 -3571609.929 10 0 60974 55800.00000 0 15065397.194 20555295.633 -347940.567 10 0 60974 56700.00000 0 15120519.500 20318005.369 2882507.290 10 0 60974 57600.00000 0 14895206.286 19783253.325 6056842.555 10 0 60974 58500.00000 0 14357005.499 18998316.727 9113317.318 10 0 60974 59400.00000 0 13484917.155 18017790.110 11992534.719 10 0 60974 60300.00000 0 12270502.207 16901166.807 14638605.916 10 0 60974 61200.00000 0 10718469.314 15710236.372 17000233.277 10 0 60974 62100.00000 0 8846715.183 14506408.668 19031698.919 10 0 60974 63000.00000 0 6685817.309 13348077.813 20693740.111 10 0 60974 63900.00000 0 4278000.873 12288136.643 21954295.651 10 0 60974 64800.00000 0 1675623.315 11371745.325 22789110.218 10 0 60974 65700.00000 0 -1060760.185 10634446.436 23182186.623 10 0 60974 66600.00000 0 -3864670.112 10100703.855 23126078.853 10 0 60974 67500.00000 0 -6666221.217 9782924.874 22622021.735 10 0 60974 68400.00000 0 -9394782.988 9681004.657 21679895.919 10 0 60974 69300.00000 0 -11981673.176 9782410.610 20318029.696 10 0 60974 70200.00000 0 -14362774.510 10062801.926 18562841.843 10 0 60974 71100.00000 0 -16480968.020 10487157.689 16448332.322 10 0 60974 72000.00000 0 -18288283.867 11011366.029 14015430.199 10 0 60974 72900.00000 0 -19747682.051 11584207.903 11311210.583 10 0 60974 73800.00000 0 -20834390.414 12149652.818 8387994.639 10 0 60974 74700.00000 0 -21536745.230 12649370.775 5302348.985 10 0 60974 75600.00000 0 -21856499.987 13025355.595 2114002.644 10 0 60974 76500.00000 0 -21808589.717 13222549.865 -1115298.551 10 0 60974 77400.00000 0 -21420360.618 13191361.305 -4322978.774 10 0 60974 78300.00000 0 -20730296.847 12889964.490 -7446837.931 10 0 60974 79200.00000 0 -19786297.303 12286290.394 -10426253.411 10 0 60974 80100.00000 0 -18643574.077 11359618.875 -13203354.714 10 0 60974 81000.00000 0 -17362260.195 10101705.484 -15724148.222 10 0 60974 81900.00000 0 -16004826.628 8517393.189 -17939570.141 10 0 60974 82800.00000 0 -14633416.807 6624680.954 -19806446.818 10 0 60974 83700.00000 0 -13307210.514 4454243.771 -21288343.358 10 0 60974 84600.00000 0 -12079928.079 2048421.671 -22356283.495 10 0 60974 85500.00000 0 -10997580.159 -540282.419 -22989326.015 99